| time (UTC) | temp F | wind direction | speed knots | gust knots | rain 1hr in | rain 24hr in | rain mn in | humidity % | barometer mb |
| 20260505041503 | 63 | 218 | 7.8 | 8.7 | 0.00 | 0.00 | 0.00 | 71 | 1003.0 |
| 20260505040002 | 64 | 198 | 5.2 | 14.8 | 0.00 | 0.00 | 0.00 | 65 | 1003.0 |
| 20260505034502 | 63 | 230 | 5.2 | 8.7 | 0.00 | 0.00 | 0.00 | 68 | 1002.7 |
| 20260505033003 | 61 | 134 | 1.7 | 5.2 | 0.00 | 0.00 | 0.00 | 69 | 1002.7 |
| 20260505031502 | 60 | 263 | 1.7 | 3.5 | 0.00 | 0.00 | 0.00 | 68 | 1003.0 |
| 20260505030002 | 60 | 246 | 4.3 | 4.3 | 0.00 | 0.00 | 0.00 | 68 | 1003.4 |
| 20260505024502 | 60 | 246 | 3.5 | 4.3 | 0.00 | 0.00 | 0.00 | 68 | 1003.4 |
| 20260505023001 | 60 | 217 | 2.6 | 6.1 | 0.00 | 0.00 | 0.00 | 68 | 1003.4 |
| 20260505021902 | 60 | 229 | 7.0 | 7.8 | 0.00 | 0.00 | 0.00 | 68 | 1003.4 |
| 20260505020501 | 60 | 210 | 2.6 | 6.1 | 0.00 | 0.00 | 0.00 | 59 | 1003.7 |
| 20260505015402 | 59 | 202 | 0.9 | 1.7 | 0.00 | 0.00 | 0.00 | 56 | 1003.4 |
| 20260505013902 | 59 | 212 | 0.9 | 2.6 | 0.00 | 0.00 | 0.00 | 55 | 1003.4 |
| 20260505012502 | 59 | 223 | 0.0 | 5.2 | 0.00 | 0.00 | 0.00 | 55 | 1003.4 |
| 20260505011003 | 59 | 226 | 5.2 | 5.2 | 0.00 | 0.00 | 0.00 | 54 | 1003.4 |
| 20260505005902 | 60 | 242 | 1.7 | 5.2 | 0.00 | 0.00 | 0.00 | 54 | 1003.4 |
| 20260505004502 | 61 | 208 | 2.6 | 3.5 | 0.00 | 0.00 | 0.00 | 51 | 1003.4 |
| 20260505001502 | 66 | 191 | 0.9 | 3.5 | 0.00 | 0.00 | 0.00 | 40 | 1003.4 |
| 20260505000002 | 68 | 253 | 7.0 | 7.8 | 0.00 | 0.00 | 0.00 | 37 | 1003.4 |
| 20260504234502 | 68 | 283 | 3.5 | 6.1 | 0.00 | 0.00 | 0.00 | 36 | 1003.4 |
| 20260504233502 | 69 | 275 | 2.6 | 6.1 | 0.00 | 0.00 | 0.00 | 36 | 1003.4 |
| 20260504232003 | 69 | 231 | 7.0 | 8.7 | 0.00 | 0.00 | 0.00 | 36 | 1003.4 |
| 20260504230502 | 70 | 217 | 6.1 | 10.4 | 0.00 | 0.00 | 0.00 | 38 | 1003.7 |
| 20260504225002 | 70 | 305 | 3.5 | 11.3 | 0.00 | 0.00 | 0.00 | 40 | 1003.7 |
| 20260504224001 | 70 | 227 | 6.1 | 6.1 | 0.00 | 0.00 | 0.00 | 40 | 1003.7 |
| 20260504222502 | 71 | 256 | 1.7 | 7.8 | 0.00 | 0.00 | 0.00 | 39 | 1003.7 |
| 20260504221002 | 71 | 267 | 6.1 | 13.9 | 0.00 | 0.00 | 0.00 | 36 | 1003.4 |
| 20260504215502 | 73 | 287 | 5.2 | 9.6 | 0.00 | 0.00 | 0.00 | 32 | 1003.4 |
| 20260504214003 | 74 | 273 | 7.8 | 10.4 | 0.00 | 0.00 | 0.00 | 31 | 1003.4 |
| 20260504212502 | 74 | 235 | 7.8 | 9.6 | 0.00 | 0.00 | 0.00 | 31 | 1003.4 |
| 20260504211002 | 75 | 233 | 7.0 | 10.4 | 0.00 | 0.00 | 0.00 | 33 | 1003.7 |
| 20260504205502 | 73 | 305 | 7.8 | 11.3 | 0.00 | 0.00 | 0.00 | 35 | 1003.7 |
| 20260504204402 | 74 | 250 | 5.2 | 10.4 | 0.00 | 0.00 | 0.00 | 35 | 1004.1 |
| 20260504202902 | 74 | 297 | 2.6 | 11.3 | 0.00 | 0.00 | 0.00 | 38 | 1004.1 |
| 20260504201402 | 74 | 289 | 2.6 | 11.3 | 0.00 | 0.00 | 0.00 | 39 | 1004.1 |
| 20260504195902 | 74 | 275 | 2.6 | 7.0 | 0.00 | 0.00 | 0.00 | 37 | 1004.4 |
| 20260504194402 | 74 | 261 | 3.5 | 13.0 | 0.00 | 0.00 | 0.00 | 37 | 1004.4 |
| 20260504193002 | 76 | 246 | 5.2 | 7.8 | 0.00 | 0.00 | 0.00 | 35 | 1004.7 |
| 20260504191502 | 74 | 268 | 3.5 | 7.8 | 0.00 | 0.00 | 0.00 | 38 | 1005.1 |
| 20260504190501 | 74 | 209 | 7.8 | 13.9 | 0.00 | 0.00 | 0.00 | 37 | 1005.1 |
| 20260504185002 | 73 | 219 | 7.0 | 13.0 | 0.00 | 0.00 | 0.00 | 38 | 1005.1 |
| 20260504183402 | 74 | 230 | 5.2 | 9.6 | 0.00 | 0.00 | 0.00 | 37 | 1005.4 |
| 20260504182002 | 72 | 234 | 5.2 | 11.3 | 0.00 | 0.00 | 0.00 | 40 | 1005.4 |
| 20260504180502 | 72 | 287 | 6.1 | 9.6 | 0.00 | 0.00 | 0.00 | 39 | 1005.8 |
| 20260504175001 | 71 | 205 | 5.2 | 11.3 | 0.00 | 0.00 | 0.00 | 41 | 1006.1 |
| 20260504173501 | 70 | 222 | 3.5 | 13.9 | 0.00 | 0.00 | 0.00 | 44 | 1006.1 |
| 20260504172002 | 69 | 223 | 5.2 | 13.9 | 0.00 | 0.00 | 0.00 | 45 | 1006.1 |
| 20260504170902 | 68 | 249 | 9.6 | 16.5 | 0.00 | 0.00 | 0.00 | 44 | 1006.1 |
| 20260504150503 | 63 | 257 | 7.0 | 15.6 | 0.00 | 0.00 | 0.00 | 47 | 1007.1 |
| 20260504140502 | 60 | 246 | 12.2 | 17.4 | 0.00 | 0.00 | 0.00 | 49 | 1007.1 |
| 20260504070402 | 47 | 250 | 4.3 | 7.8 | 0.00 | 0.00 | 0.00 | 78 | 1008.8 |
| 20260504050502 | 51 | 250 | 7.0 | 13.9 | 0.00 | 0.00 | 0.00 | 66 | 1009.5 |
| 20260504045402 | 50 | 212 | 6.1 | 13.9 | 0.00 | 0.00 | 0.00 | 66 | 1009.8 |
| 20260504044001 | 50 | 275 | 6.1 | 9.6 | 0.00 | 0.00 | 0.00 | 64 | 1009.8 |
| 20260504042902 | 50 | 278 | 3.5 | 9.6 | 0.00 | 0.00 | 0.00 | 64 | 1009.8 |